Find Starlink 32316

NORAD ID: 61860 Int'l Des: 2024-202 Owner: SPXS Country: US Constellation: starlink operational
LEOCIRCULAR

Live-Position

3D-Globus wird geladen...

Über Starlink 32316

Beschreibung wird geladen...

Nächste Überflüge

Passes for default location (London). Set your location on the main map for personalized predictions.

Höhenverlauf

Loading altitude history...

Zweizeiliger Elementsatz

1 61860U 24202R 26127.10381468 -.00000825 00000-0 -20460-4 0 9993
2 61860 43.0033 264.4364 0001241 249.9945 110.0773 15.27567254 84303
Epoch: 7. Mai 2026 • Age: 9 hours

Aktueller Status

Höhe 490.8 km
Geschwindigkeit 7.62 km/s
Subsatellitenpunkt -31.13°S, 87.09°E
Startdatum 7. Nov. 2024
Alter 1.4 years
Typ internet

Technische Details

Klassifizierung Payload
Masse 730.00 kg
Trockenmasse 700.00 kg
Gesamtmasse 730.00 kg
Länge 0.30 m
Durchmesser 4.10 m
Spannweite 29.00 m
Form Box + pan
Hersteller SPXS
Bus-Typ Starlink V2M
Phasenstatus In Orbit
Besitzer/Staat SPXS/US

Most Searched